Location: Bamazo
(6.7448°N, 10.8189°W)
Time: 01:34:16
(UTC+00:00)

Cosmos 1174 - Pass Details

Date: 18 September 2020
Orbit: 362 x 1155 km, 66.1° (Epoch: 21 October)

Event Time Altitude Azimuth Distance (km) Brightness Sun altitude
Rises 19:12:04 0° 198° (SSW) 2,379 7.3 -8.5°
Reaches altitude 10° 19:13:57 10° 197° (SSW) 1,588 6.4 -9.0°
Maximum altitude 19:17:26 78° 110° (ESE) 534 3.6 -9.8°
Drops below altitude 10° 19:21:47 10° 24° (NNE) 1,973 6.4 -10.9°
Sets 19:24:21 0° 23° (NNE) 3,025 7.4 -11.5°
